TimeEDT,TemperatureF,Dew PointF,Humidity,Sea Level PressureIn,VisibilityMPH,Wind Direction,Wind SpeedMPH,Gust SpeedMPH,PrecipitationIn,Events,Conditions,WindDirDegrees,DateUTC
12:11 AM,45.3,30.2,56,30.22,10.0,NNW,13.8,21.9,N/A,,Mostly Cloudy,330,2012-10-12 04:11:00
12:32 AM,45.5,31.1,57,30.22,10.0,NNW,13.8,20.7,N/A,,Mostly Cloudy,330,2012-10-12 04:32:00
12:52 AM,45.1,32.0,60,30.23,10.0,North,10.4,19.6,N/A,,Overcast,350,2012-10-12 04:52:00
1:12 AM,44.6,31.1,59,30.24,10.0,North,9.2,17.3,N/A,,Scattered Clouds,360,2012-10-12 05:12:00
1:32 AM,45.0,32.0,60,30.25,10.0,North,11.5,-,N/A,,Mostly Cloudy,360,2012-10-12 05:32:00
1:52 AM,44.8,32.0,61,30.26,10.0,North,9.2,17.3,N/A,,Mostly Cloudy,350,2012-10-12 05:52:00
2:13 AM,44.6,31.1,59,30.26,10.0,NNW,6.9,16.1,N/A,,Scattered Clouds,340,2012-10-12 06:13:00
2:33 AM,44.4,30.2,57,30.27,10.0,North,8.1,-,N/A,,Mostly Cloudy,350,2012-10-12 06:33:00
2:53 AM,44.6,30.0,57,30.28,10.0,North,6.9,-,N/A,,Mostly Cloudy,360,2012-10-12 06:53:00
3:34 AM,44.6,28.2,53,30.29,10.0,North,6.9,-,N/A,,Mostly Cloudy,350,2012-10-12 07:34:00
3:54 AM,44.1,30.2,58,30.29,10.0,North,6.9,-,N/A,,Mostly Cloudy,350,2012-10-12 07:54:00
4:14 AM,44.6,29.3,55,30.30,10.0,NNW,8.1,-,N/A,,Mostly Cloudy,340,2012-10-12 08:14:00
4:34 AM,44.6,29.7,56,30.31,10.0,North,4.6,-,N/A,,Mostly Cloudy,350,2012-10-12 08:34:00
4:54 AM,44.6,30.9,59,30.32,10.0,North,5.8,-,N/A,,Overcast,350,2012-10-12 08:54:00
5:15 AM,44.8,29.1,54,30.33,10.0,North,5.8,-,N/A,,Overcast,360,2012-10-12 09:15:00
5:35 AM,44.1,28.0,53,30.34,10.0,North,8.1,-,N/A,,Mostly Cloudy,350,2012-10-12 09:35:00
5:55 AM,43.7,27.5,53,30.34,10.0,North,5.8,-,N/A,,Scattered Clouds,360,2012-10-12 09:55:00
6:15 AM,43.9,28.4,55,30.35,10.0,North,5.8,-,N/A,,Scattered Clouds,360,2012-10-12 10:15:00
6:36 AM,44.1,29.5,57,30.35,10.0,Calm,Calm,-,N/A,,Mostly Cloudy,0,2012-10-12 10:36:00
6:51 AM,43.0,27.7,55,30.35,10.0,Calm,Calm,-,N/A,,Scattered Clouds,0,2012-10-12 10:51:00
7:11 AM,43.3,27.7,54,30.36,10.0,North,3.5,-,N/A,,Scattered Clouds,350,2012-10-12 11:11:00
7:31 AM,44.1,29.8,57,30.37,10.0,NNW,4.6,-,N/A,,Mostly Cloudy,330,2012-10-12 11:31:00
7:51 AM,43.9,28.9,56,30.38,10.0,North,5.8,-,N/A,,Mostly Cloudy,350,2012-10-12 11:51:00
8:32 AM,38.8,32.2,77,30.40,10.0,SSE,3.5,-,N/A,,Mostly Cloudy,160,2012-10-12 12:32:00
8:52 AM,40.3,32.2,73,30.41,10.0,Calm,Calm,-,N/A,,Mostly Cloudy,0,2012-10-12 12:52:00
9:12 AM,41.9,33.8,73,30.41,10.0,Calm,Calm,-,N/A,,Scattered Clouds,0,2012-10-12 13:12:00
9:32 AM,45.1,32.4,61,30.42,10.0,SSE,4.6,-,N/A,,Mostly Cloudy,150,2012-10-12 13:32:00
9:53 AM,45.9,30.6,55,30.42,10.0,Calm,Calm,-,N/A,,Mostly Cloudy,0,2012-10-12 13:53:00
10:13 AM,48.2,29.7,49,30.42,10.0,ENE,3.5,-,N/A,,Mostly Cloudy,60,2012-10-12 14:13:00
10:53 AM,46.6,28.6,50,30.43,10.0,North,3.5,-,N/A,,Scattered Clouds,360,2012-10-12 14:53:00
11:14 AM,47.1,28.4,48,30.43,10.0,North,3.5,-,N/A,,Mostly Cloudy,350,2012-10-12 15:14:00
11:34 AM,48.9,28.2,45,30.43,10.0,North,6.9,-,N/A,,Scattered Clouds,350,2012-10-12 15:34:00
12:14 PM,50.7,25.5,38,30.44,10.0,ENE,3.5,-,N/A,,Mostly Cloudy,60,2012-10-12 16:14:00
12:35 PM,48.2,26.6,43,30.45,10.0,North,4.6,-,N/A,,Overcast,350,2012-10-12 16:35:00
12:55 PM,48.2,25.9,42,30.44,10.0,Calm,Calm,-,N/A,,Scattered Clouds,0,2012-10-12 16:55:00
1:15 PM,51.1,28.8,42,30.45,10.0,West,8.1,-,N/A,,Mostly Cloudy,270,2012-10-12 17:15:00
1:55 PM,48.2,27.5,45,30.43,10.0,WNW,8.1,-,N/A,,Scattered Clouds,300,2012-10-12 17:55:00
2:31 PM,49.1,27.5,43,30.43,10.0,SW,3.5,-,N/A,,Scattered Clouds,220,2012-10-12 18:31:00
4:12 PM,51.1,26.2,38,30.39,10.0,WSW,5.8,-,N/A,,Clear,240,2012-10-12 20:12:00
4:52 PM,50.5,26.8,40,30.38,10.0,SSW,8.1,-,N/A,,Clear,210,2012-10-12 20:52:00
5:12 PM,50.0,28.2,43,30.39,10.0,WSW,6.9,-,N/A,,Clear,250,2012-10-12 21:12:00
5:32 PM,50.2,30.9,48,30.38,10.0,West,3.5,-,N/A,,Clear,260,2012-10-12 21:32:00
5:53 PM,49.6,31.3,49,30.38,10.0,SW,4.6,-,N/A,,Clear,230,2012-10-12 21:53:00
6:13 PM,49.1,32.0,52,30.38,10.0,WSW,5.8,-,N/A,,Clear,240,2012-10-12 22:13:00
6:53 PM,46.8,32.0,57,30.37,10.0,SW,3.5,-,N/A,,Clear,230,2012-10-12 22:53:00
7:13 PM,45.3,32.2,60,30.37,10.0,Calm,Calm,-,N/A,,Clear,0,2012-10-12 23:13:00
7:34 PM,42.4,32.7,68,30.37,10.0,Calm,Calm,-,N/A,,Clear,0,2012-10-12 23:34:00
7:54 PM,40.3,32.7,74,30.36,10.0,Calm,Calm,-,N/A,,Clear,0,2012-10-12 23:54:00
8:14 PM,39.2,33.1,79,30.36,10.0,Calm,Calm,-,N/A,,Clear,0,2012-10-13 00:14:00
8:34 PM,38.7,33.3,81,30.35,10.0,Calm,Calm,-,N/A,,Clear,0,2012-10-13 00:34:00
9:15 PM,38.5,33.6,83,30.34,10.0,Calm,Calm,-,N/A,,Scattered Clouds,0,2012-10-13 01:15:00
9:35 PM,38.5,33.8,83,30.34,10.0,Calm,Calm,-,N/A,,Clear,0,2012-10-13 01:35:00
10:15 PM,39.7,35.1,83,30.34,10.0,Calm,Calm,-,N/A,,Clear,0,2012-10-13 02:15:00
10:36 PM,38.8,34.3,84,30.33,10.0,Calm,Calm,-,N/A,,Clear,0,2012-10-13 02:36:00
10:51 PM,41.4,34.7,77,30.33,10.0,Calm,Calm,-,N/A,,Clear,0,2012-10-13 02:51:00
11:11 PM,40.8,34.2,77,30.33,10.0,Calm,Calm,-,N/A,,Clear,0,2012-10-13 03:11:00
11:31 PM,42.3,33.8,72,30.32,10.0,SE,3.5,-,N/A,,Clear,140,2012-10-13 03:31:00
11:51 PM,41.5,33.8,74,30.31,10.0,Calm,Calm,-,N/A,,Clear,0,2012-10-13 03:51:00